TimeEDT,TemperatureF,Dew PointF,Humidity,Sea Level PressureIn,VisibilityMPH,Wind Direction,Wind SpeedMPH,Gust SpeedMPH,PrecipitationIn,Events,Conditions,WindDirDegrees,DateUTC
12:13 AM,66.2,64.4,94,29.92,1.5,NNW,9.2,-,N/A,,Partly Cloudy,340,2012-09-01 04:13:00
12:15 AM,66.2,64.4,94,29.92,4.0,NNW,8.1,-,N/A,,Partly Cloudy,340,2012-09-01 04:15:00
12:53 AM,68.0,64.0,87,29.94,10.0,North,9.2,-,N/A,,Clear,10,2012-09-01 04:53:00
1:53 AM,64.4,62.6,94,29.95,10.0,ESE,5.8,-,N/A,,Clear,120,2012-09-01 05:53:00
2:53 AM,60.1,60.1,100,29.98,6.0,Calm,Calm,-,N/A,,Clear,0,2012-09-01 06:53:00
3:53 AM,64.0,61.0,90,30.00,10.0,NNW,5.8,-,N/A,,Scattered Clouds,330,2012-09-01 07:53:00
4:53 AM,62.1,57.9,86,30.02,10.0,NNW,3.5,-,N/A,,Clear,340,2012-09-01 08:53:00
5:53 AM,59.0,57.0,93,30.04,10.0,Calm,Calm,-,N/A,,Clear,0,2012-09-01 09:53:00
6:53 AM,57.0,55.0,93,30.07,10.0,Calm,Calm,-,N/A,,Clear,0,2012-09-01 10:53:00
7:53 AM,64.0,57.9,80,30.09,10.0,NE,5.8,-,N/A,,Clear,50,2012-09-01 11:53:00
8:53 AM,66.9,57.9,73,30.11,10.0,ENE,11.5,-,N/A,,Clear,60,2012-09-01 12:53:00
9:53 AM,69.1,59.0,70,30.13,10.0,East,6.9,-,N/A,,Partly Cloudy,80,2012-09-01 13:53:00
10:53 AM,72.0,57.9,61,30.13,10.0,East,8.1,-,N/A,,Clear,100,2012-09-01 14:53:00
11:53 AM,72.0,57.0,59,30.13,10.0,NE,8.1,-,N/A,,Clear,40,2012-09-01 15:53:00
12:53 PM,75.0,55.9,51,30.12,10.0,NE,5.8,-,N/A,,Clear,50,2012-09-01 16:53:00
1:53 PM,77.0,55.9,48,30.11,10.0,Variable,3.5,-,N/A,,Scattered Clouds,0,2012-09-01 17:53:00
2:53 PM,75.2,53.6,47,30.10,10.0,NNE,6.9,-,N/A,,Scattered Clouds,30,2012-09-01 18:53:00
3:53 PM,78.1,53.1,42,30.09,10.0,Calm,Calm,-,N/A,,Clear,0,2012-09-01 19:53:00
4:53 PM,77.0,52.0,42,30.09,10.0,NNW,3.5,-,N/A,,Clear,330,2012-09-01 20:53:00
5:53 PM,75.9,53.1,45,30.08,10.0,NNE,6.9,-,N/A,,Clear,30,2012-09-01 21:53:00
6:53 PM,73.0,55.0,53,30.08,10.0,Calm,Calm,-,N/A,,Clear,0,2012-09-01 22:53:00
7:53 PM,64.0,57.9,80,30.09,10.0,Calm,Calm,-,N/A,,Clear,0,2012-09-01 23:53:00
8:53 PM,59.0,55.0,87,30.10,10.0,Calm,Calm,-,N/A,,Clear,0,2012-09-02 00:53:00
9:53 PM,55.9,54.0,93,30.10,10.0,Calm,Calm,-,N/A,,Clear,0,2012-09-02 01:53:00
10:53 PM,55.0,53.1,93,30.09,10.0,Calm,Calm,-,N/A,,Clear,0,2012-09-02 02:53:00
11:53 PM,55.0,53.1,93,30.09,10.0,Calm,Calm,-,N/A,,Clear,0,2012-09-02 03:53:00